User: anonymous   Login
Location: Famechon
(49.7599°N, 2.0615°E)
Time: 09:52:08
(UTC+00:00)
Language:

CZ-2D R/B - Orbit

View from above orbital plane
View from above orbital plane
View from above satellite
View from above satellite

Ground track
Ground track

The orbit data is extracted from the following two-line orbital elements,

1 58074U 23159B   24279.82301959  .00001013  00000-0  39692-3 0  9992
2 58074  98.4917 298.7899 0098707 313.9750  45.3322 14.28909452 50946
Epoch (UTC): 05 October 2024 19:45:08
Eccentricity: 0.0098707
inclination: 98.4917°
perigee height: 724 km
apogee height: 866 km
right ascension of ascending node: 298.7899°
argument of perigee: 313.9750°
revolutions per day: 14.28909452
mean anomaly at epoch: 45.3322°
orbit number at epoch: 5094

The dashed part of the orbit path shows where the satellite is in the earth's shadow,  

DLR